Tracking 25648 objects as of 17-May-2022
HD Live streaming from Space Station
objects crossing your sky now

FREGAT DEB

Track FREGAT DEB now!
10-day predictions


NORAD ID: 45955
Int'l Code: 2011-037FL
Perigee: 621.7 km
Apogee: 5,411.7 km
Inclination: 51.5 °
Period: 150.9 minutes
Semi major axis: 9387 km
RCS: Unknown
Launch date: July 18, 2011
Source: Commonwealth of Independent States (former USSR) (CIS)
Launch site: TYURATAM MISSILE AND SPACE COMPLEX (TTMTR)

Note: This is SATELLITE DEBRIS
aabbcc
Your satellite tracking list
Your tracking list is empty




NASA's NSSDC Master Catalog

Two Line Element Set (TLE):
1 45955U 11037FL  22136.96891608  .00046217  00000-0  61793-1 0  9998
2 45955  51.4851 229.7747 2551204 225.0077 111.3635  9.54475236 62636
Source of the keplerian elements: AFSPC